Weather observations for the past three days for
Saranac Lake, Adirondack Regional Airport
Imperial (Metric)
Date Time (edt) Wind (mph) Vis. (mi.) Weather Sky Cond. Temperature (ºF) Relative Humidity Wind Chill (°F) Heat Index (°F) Pressure Precipitation (in)
Air Dwpt 6 hour altimeter (in) sea level (mb) 1 hr 3 hr 6 hr
Max. Min.
12 11:51 Vrbl 3 10.00 Overcast OVC033 72 62.1 71% 30.18 1021.2
12 10:51 W 6 10.00 Overcast SCT018 OVC031 70 63 79% 30.19 1021.4
12 09:51 SW 7 10.00 Overcast SCT013 BKN023 OVC033 69.1 64 84% 30.18 1021.4
12 08:51 W 6 10.00 Mostly Cloudy FEW010 BKN016 BKN029 70 64 82% 30.17 1021.0
12 07:51 Calm 10.00 Overcast OVC009 66.9 63 66.9 64.9 87% 30.16 1020.8
12 06:51 Calm 10.00 Overcast BKN005 OVC011 66 63 90% 30.14 1020.1
12 05:51 Calm 10.00 Overcast BKN010 BKN014 OVC019 66 64 93% 30.13 1019.6
12 04:51 Calm 10.00 Overcast SCT013 OVC034 66 64 93% 30.12 1019.2
12 03:51 Calm 10.00 Overcast BKN010 BKN015 OVC032 66 64 93% 30.1 1018.6
12 02:51 Calm 10.00 Overcast BKN007 OVC016 66 64 93% 30.1 1018.5
12 01:51 Calm 9.00 Overcast SCT009 OVC041 66 64 68 66 93% 30.09 1018.3
12 00:51 Calm 10.00 Overcast OVC006 66 64 93% 30.09 1018.2
11 23:51 Calm 10.00 Overcast OVC009 66.9 64 91% 30.09 1017.9
11 22:51 Calm 10.00 Overcast BKN007 OVC028 66.9 64 91% 30.08 1017.7
11 21:51 Calm 10.00 Overcast OVC022 66.9 64 91% 30.06 1017.3
11 20:51 Calm 10.00 Overcast OVC008 66.9 64 91% 30.04 1016.5
11 19:51 Calm 10.00 Overcast BKN009 OVC014 68 64.9 73 68 90% 30.02 1015.9 0.03
11 18:51 Vrbl 5 10.00 Overcast SCT010 OVC018 69.1 64.9 87% 30 1015.3
11 17:51 Vrbl 5 10.00 Overcast SCT015 OVC024 70 66 87% 29.98 1014.6
11 16:51 W 3 6.00 Light Rain Fog/Mist FEW017 BKN025 OVC037 70 66.9 90% 29.96 1014.0 0.03
11 15:51 Vrbl 6 10.00 Overcast FEW019 BKN035 OVC045 71.1 66.9 87% 29.94 1013.3
11 14:51 Calm 2.50 Light Rain Fog/Mist FEW012 BKN022 OVC032 70 68 93% 29.93 1012.7 0.03
11 13:51 Vrbl 5 9.00 Light Rain FEW020 BKN026 OVC034 72 66.9 73.9 66.9 84% 29.9 1011.9 0.01 0.01
11 12:51 SW 7 10.00 Overcast FEW023 BKN030 OVC038 73 66 79% 29.89 1011.2
11 11:51 SW 6 10.00 Overcast SCT015 BKN023 OVC060 72 66 82% 29.88 1011.0
11 10:51 SW 7 10.00 Overcast SCT018 BKN023 OVC070 71.1 66.9 87% 29.87 1010.7
11 09:51 SW 8 10.00 Overcast FEW008 BKN014 OVC020 69.1 66.9 93% 29.86 1010.3
11 08:51 SW 3 6.00 Light Rain Fog/Mist BKN008 OVC013 68 66 93% 29.84 1009.6
11 07:51 Calm 10.00 Overcast FEW003 BKN008 OVC041 66.9 64.9 66.9 64 93% 29.82 1009.0 0.04
11 06:51 N 3 10.00 Overcast OVC006 66 64 93% 29.79 1008.2 0.04
11 05:51 NE 5 10.00 Overcast OVC007 64.9 63 93% 29.78 1008.0
11 04:51 Calm 10.00 Overcast OVC009 64.9 64 97% 29.77 1007.4
11 03:51 NE 3 10.00 Overcast OVC010 64.9 63 93% 29.75 1006.6
11 02:51 Calm 7.00 Overcast BKN002 OVC011 64.9 63 93% 29.74 1006.4
11 01:51 NE 3 10.00 A Few Clouds FEW005 64 62.1 66.9 64 93% 29.74 1006.1 1.16
11 00:51 E 8 10.00 Overcast FEW003 FEW022 OVC095 66 64 93% 29.75 1006.6 0.09
10 23:51 NE 6 10.00 Overcast SCT005 OVC027 66 64 93% 29.75 1006.8
10 22:51 Vrbl 3 10.00 Overcast BKN004 BKN045 OVC070 66 64 93% 29.75 1006.7 0.02 1.07
10 21:51 E 8 7.00 Rain SCT060 BKN095 BKN110 66 64.9 96% 29.74 1006.1 0.97
10 20:51 Calm 3.00 Rain Fog/Mist SCT006 BKN030 OVC038 66 64 93% 29.76 1006.9 0.08
10 19:51 NE 8 5.00 Light Rain Fog/Mist FEW004 BKN013 OVC060 64.9 63 73 64 93% 29.74 1006.4 0.2 1.34
10 18:51 NE 9 5.00 Thunderstorm in Vicinity Light Rain Fog/Mist SCT005 BKN038 OVC046 64.9 63 93% 29.77 1007.2 0.1
10 17:51 E 6 5.00 Thunderstorm in Vicinity Light Rain Fog/Mist FEW007 BKN055 OVC120 64.9 63 93% 29.77 1007.7 0.11
10 16:51 E 12 10.00 Light Rain BKN040 BKN060 OVC100 64.9 63 93% 29.77 1007.5 0.09 0.93
10 15:51 Vrbl 3 1.00 Thunderstorm Heavy Rain Fog/Mist BKN025 OVC043 66 64 93% 29.81 1008.8 0.8
10 14:51 E 18 G 31 4.00 Thunderstorm in Vicinity Light Rain Fog/Mist FEW010 BKN070 OVC085 66 64 93% 29.77 1007.6 0.04
10 13:51 NE 16 G 22 10.00 Mostly Cloudy FEW012 BKN032 BKN044 72 66 72 68 82% 29.8 1008.5 0.09
10 12:51 NE 9 10.00 Overcast FEW008 BKN029 OVC036 68 66 93% 29.84 1009.9
10 11:51 NE 9 10.00 Thunderstorm OVC042 68 66 93% 29.86 1010.4 0.05
10 10:51 NE 6 8.00 Overcast OVC055 69.1 66.9 93% 29.87 1010.9 0.03 0.04
10 09:51 SE 3 6.00 Light Rain BKN075 BKN100 OVC120 70 64.9 84% 29.9 1011.5 0.01
10 08:51 Calm 10.00 Overcast OVC110 71.1 66 84% 29.91 1011.9
10 07:51 Calm 10.00 Mostly Cloudy BKN110 70 64.9 70 62.1 84% 29.91 1011.9
10 06:51 Calm 7.00 Partly Cloudy SCT120 66 63 90% 29.92 1012.2
10 05:51 Calm 7.00 Mostly Cloudy BKN120 64.9 62.1 90% 29.91 1012.0
10 04:51 Calm 9.00 Overcast FEW020 OVC100 66 63 90% 29.92 1012.0
10 03:51 Calm 7.00 Mostly Cloudy BKN120 64 62.1 93% 29.92 1012.0
10 02:51 Calm 10.00 Fair CLR 64.9 62.1 90% 29.92 1012.2
10 01:51 Calm 9.00 Fair CLR 62.1 60.1 75.9 61 93% 29.94 1013.0
10 00:51 Calm 10.00 Fair CLR 63 61 93% 29.95 1013.1
09 23:51 SW 5 10.00 Fair CLR 64.9 62.1 90% 29.95 1013.2
09 22:51 Calm 10.00 Fair CLR 64.9 62.1 90% 29.94 1013.0
09 21:51 Calm 10.00 Fair CLR 69.1 63 81% 29.94 1012.7
09 20:51 Calm 10.00 Fair CLR 72 62.1 71% 29.93 1012.5
09 19:51 SW 7 10.00 Fair CLR 75.9 62.1 84 75.9 62% 78 29.92 1012.4
09 18:51 SW 12 G 17 10.00 Fair CLR 79 63 58% 81 29.92 1012.5
09 17:51 W 8 G 20 10.00 A Few Clouds FEW075 79 61 54% 80 29.92 1012.4
09 16:51 W 10 G 18 10.00 Mostly Cloudy FEW050 SCT090 BKN100 81 62.1 53% 82 29.92 1012.3
09 15:51 W 10 G 23 10.00 A Few Clouds FEW049 FEW080 84 62.1 48% 85 29.92 1012.1
09 14:51 SW 10 10.00 Partly Cloudy FEW050 SCT120 82.9 61 48% 83 29.93 1012.5
09 13:51 W 8 G 21 10.00 Mostly Cloudy SCT049 SCT065 BKN095 81 61 82.9 66 51% 82 29.94 1012.8
09 12:51 SW 10 10.00 A Few Clouds FEW049 80.1 60.1 51% 81 29.95 1013.2
Date Time (edt) Wind (mph) Vis. (mi.) Weather Sky Cond. Air Dwpt Max. Min. Relative Humidity Wind Chill (°F) Heat Index (°F) altimeter (in) sea level (mb) 1 hr 3 hr 6 hr
6 hour
Temperature (ºF) Pressure Precipitation (in)